Location: Betpouey
(42.8833°N, 0.0333°E)
Time: 08:23:18
(UTC+00:00)

SL-16 R/B - Pass Details

Date: 01 December 2020
Orbit: 841 x 849 km, 71.0° (Epoch: 17 January)

Event Time Altitude Azimuth Distance (km) Brightness Sun altitude
Rises 18:35:05 0° 251° (WSW) 3,390 6.7 -22.9°
Reaches altitude 10° 18:38:19 10° 269° (W) 2,459 5.7 -23.5°
Maximum altitude 18:42:08 18° 312° (NW) 1,942 4.5 -24.2°
Drops below altitude 10° 18:45:58 10° 356° (N) 2,467 4.6 -24.9°
Enters shadow 18:47:21 - 5° (N) 2,833 4.8 -25.2°
